Content
SEND FEEDBACK

Daily
Averages
Monthly
Summary
Canada

MONCTON, NEW BRUNSWICK


Home > North America > Canada > New Brunswick
Elevation: 232 feet     Latitude: 46 07N     Longitude: 064 41W

WEATHER
 
SELECT A DAY
Number of Records: 205,742;   Date Range: 1/1/95 - 10/1/14
 
SHARE

PRINT THIS DATA

[ ← Previous Day ]
WEATHER ALMANAC - JULY 23, 2013
[ Next Day → ]
[ °C ]   °F
Weather ElementAverageHighLow
Temperature61.9 °F69.8 °F (12:00 pm)55.4 °F (1:00 am)
Dewpoint58.2 °F64.4 °F (10:38 pm)51.8 °F (6:00 am)
Humidity88.5 %100 % (4:07 pm)51 % (9:00 am)
Barometer29.74 in30.00 in (1:00 am)29.53 in (11:00 pm)
Wind Speed9.6 mph19.6 mph (4:18 pm)
Wind Gust27.6 mph (4:40 pm)
Weather ElementAverage
Visibility8.1 mi
Wind DirectionESE (120.2 °)

Weather ElementTotal
Precipitation---
Heating Degree Days2.4 (Base 65)
Growing Degree Days12.6 (Base 50)
Averaged from 56 records on July 23, 2013
WEATHER CONDITIONS BREAKOUT
WIND DIRECTION BREAKOUT
WEATHER BY HOUR - JULY 23, 2013
[ °C ]   °F
Local TimeTemperatureDewpointHumidityBarometerVisibilityWind DirectionWind SpeedGust SpeedPrecipitationEventsConditions
1:00 AM55.4 °F53.6 °F94 %30.00 in15.0 miSE (140°)8.1 mphPartly Cloudy
2:00 AM59.0 °F53.6 °F82 %29.99 in15.0 miSouth (170°)4.6 mphMostly Cloudy
3:00 AM59.0 °F54.0 °F77 %29.97 in15.0 miSE (130°)8.1 mphMostly Cloudy
3:00 AM59.0 °F53.6 °F82 %29.97 in15.0 miSE (140°)8.1 mphMostly Cloudy
4:00 AM59.0 °F53.6 °F82 %29.94 in15.0 miSE (140°)5.8 mphMostly Cloudy
5:00 AM55.4 °F53.6 °F94 %29.95 in15.0 miNE (50°)2.3 mphMostly Cloudy
6:00 AM55.4 °F51.8 °F88 %29.93 in15.0 miSE (130°)5.8 mphScattered Clouds
7:00 AM60.8 °F51.8 °F72 %29.93 in15.0 miSE (140°)5.8 mphMostly Cloudy
8:00 AM64.4 °F53.6 °F68 %29.92 in15.0 miSE (140°)5.8 mphOvercast
9:00 AM67.0 °F53.0 °F51 %29.92 in15.0 miSE (140°)6.9 mphPartly Cloudy
9:00 AM68.0 °F53.6 °F60 %29.91 in15.0 miSE (130°)6.9 mphMostly Cloudy
10:00 AM68.0 °F51.8 °F56 %29.89 in15.0 miSE (130°)10.4 mphOvercast
11:00 AM68.0 °F53.6 °F60 %29.88 in15.0 miSE (140°)10.4 mphOvercast
11:20 AM68.0 °F55.4 °F64 %29.87 in15.0 miSE (130°)8.1 mphRainLight Rain Showers
11:47 AM68.0 °F55.4 °F64 %29.86 in15.0 miSE (140°)8.1 mphMostly Cloudy
12:00 PM69.8 °F57.2 °F64 %29.86 in15.0 miSSE (150°)6.9 mphMostly Cloudy
12:47 PM66.2 °F57.2 °F73 %29.84 in15.0 miSE (140°)6.9 mphRainLight Rain Showers
1:00 PM68.0 °F60.8 °F78 %29.83 in15.0 miEast (100°)5.8 mphRainLight Rain Showers
1:20 PM66.2 °F59.0 °F78 %29.83 in15.0 miESE (110°)6.9 mphOvercast
2:00 PM66.2 °F60.8 °F83 %29.81 in15.0 miEast (100°)6.9 mphRainLight Rain Showers
3:00 PM64.4 °F59.0 °F83 %29.80 in8.0 miSSE (150°)12.7 mph18.4 mphRainLight Rain Showers
3:00 PM64.0 °F59.0 °F80 %29.80 in7.0 miSE (140°)12.7 mphRainLight Rain Showers
3:11 PM62.6 °F59.0 °F88 %29.79 in3.0 miSE (140°)10.4 mph18.4 mphRainRain Showers
3:41 PM60.8 °F59.0 °F94 %29.78 in2.5 miSE (140°)10.4 mphRainRain Showers
3:51 PM60.8 °F59.0 °F94 %29.77 in2.0 miSE (130°)12.7 mphRainHeavy Rain Showers
4:00 PM60.8 °F59.0 °F94 %29.76 in2.0 miESE (120°)12.7 mph19.6 mphRainHeavy Rain Showers
4:07 PM59.0 °F59.0 °F100 %29.76 in1.2 miESE (110°)16.1 mph21.9 mphRainHeavy Rain Showers
4:18 PM59.0 °F59.0 °F100 %29.74 in1.8 miESE (110°)19.6 mph26.5 mphRainHeavy Rain Showers
4:40 PM59.0 °F59.0 °F100 %29.73 in3.0 miEast (100°)19.6 mph27.6 mphRainRain Showers
5:00 PM59.0 °F59.0 °F100 %29.71 in3.0 miEast (100°)16.1 mph25.3 mphRainRain Showers
5:07 PM59.0 °F59.0 °F100 %29.71 in4.0 miEast (100°)12.7 mph21.9 mphRainLight Rain Showers
5:45 PM59.0 °F57.2 °F94 %29.69 in3.0 miEast (90°)12.7 mphRainRain Showers
6:00 PM59.0 °F57.2 °F94 %29.68 in3.0 miEast (90°)13.8 mphRainRain Showers
6:14 PM59.0 °F57.2 °F94 %29.65 in6.0 miEast (90°)12.7 mph21.9 mphRainLight Rain
6:19 PM59.0 °F57.2 °F94 %29.65 in4.0 miEast (90°)13.8 mphRainRain
6:35 PM59.0 °F57.2 °F94 %29.64 in5.0 miEast (100°)12.7 mphRainLight Rain
6:45 PM59.0 °F59.0 °F100 %29.63 in1.8 miEast (100°)13.8 mphRainRain
6:54 PM59.0 °F59.0 °F100 %29.62 in1.5 miEast (100°)12.7 mphRainHeavy Rain
7:00 PM59.0 °F59.0 °F100 %29.62 in2.0 miEast (100°)13.8 mphRainLight Rain
7:05 PM59.0 °F59.0 °F100 %29.62 in6.0 miEast (100°)12.7 mphRainLight Rain
7:33 PM60.8 °F59.0 °F94 %29.60 in2.5 miESE (110°)12.7 mph18.4 mphRainRain
7:41 PM60.8 °F60.8 °F100 %29.60 in4.0 miESE (110°)11.5 mphRainLight Rain
7:53 PM60.8 °F60.8 °F100 %29.59 in4.0 miESE (110°)11.5 mphRainLight Rain
8:00 PM60.8 °F60.8 °F100 %29.58 in5.0 miESE (110°)8.1 mphRainLight Rain
8:38 PM62.6 °F60.8 °F94 %29.58 in2.0 miSE (130°)5.8 mphRainRain
8:47 PM62.6 °F60.8 °F94 %29.57 in1.2 miESE (110°)9.2 mphRainHeavy Rain
8:55 PM62.6 °F62.6 °F100 %29.57 in6.0 miESE (110°)6.9 mphOvercast
9:00 PM62.0 °F62.0 °F99 %29.57 in6.0 miESE (110°)6.9 mphRainLight Rain
9:00 PM62.6 °F62.6 °F100 %29.56 in6.0 miESE (110°)6.9 mphOvercast
9:10 PM62.6 °F62.6 °F100 %29.57 in2.5 miESE (120°)5.8 mphRainRain Showers
9:19 PM62.6 °F62.6 °F100 %29.56 in4.0 miESE (120°)6.9 mphRainLight Rain Showers
9:27 PM62.6 °F62.6 °F100 %29.56 in6.0 miESE (110°)8.1 mphRainLight Rain Showers
9:38 PM62.6 °F62.6 °F100 %29.56 in5.0 miESE (120°)6.9 mphRainLight Rain Showers
10:00 PM62.6 °F62.6 °F100 %29.55 in6.0 miSSE (150°)5.8 mphRainLight Rain Showers
10:38 PM64.4 °F64.4 °F100 %29.54 in10.0 miSE (140°)4.6 mphMostly Cloudy
11:00 PM64.4 °F64.4 °F100 %29.53 in12.0 miSouth (170°)4.6 mphMostly Cloudy
Hourly data recorded from CYQM, located miles away from Moncton, New Brunswick







STORIES FROM OUR PARTNERS